User: anonymous   Login
Location: Muenchen
(48.1800°N, 11.5800°E)
Time: 01:22:47
(UTC+02:00)
Language:

Iridium 73 - Orbit

View from above orbital plane
View from above orbital plane
View from above satellite
View from above satellite

Ground track
Ground track

The orbit data is extracted from the following two-line orbital elements,

1 25344U 98032C   17293.20145924  .00000158  00000-0  36191-4 0  9997
2 25344  86.4430 150.1595 0002302  72.1219 288.0236 14.49068015 25655
Epoch (UTC): 20 October 2017 04:50:06
Eccentricity: 0.0002302
inclination: 86.4430°
perigee height: 727 km
apogee height: 730 km
right ascension of ascending node: 150.1595°
argument of perigee: 72.1219°
revolutions per day: 14.49068015
mean anomaly at epoch: 288.0236°
orbit number at epoch: 2565

The dashed part of the orbit path shows where the satellite is in the earth's shadow,  

DLR